| time (UTC) | temp C | wind direction | speed KPH | gust KPH | rain 1hr cm | rain 24hr cm | rain mn cm | humidity % | barometer mb |
| 20260503021612 | 7 | 309 | 3.2 | 6.4 | 0.00 | 0.00 | 0.00 | 76 | 1019.5 |
| 20260503014612 | 7 | 310 | 0.0 | 0.0 | 0.00 | 0.00 | 0.00 | 76 | 1019.6 |
| 20260503011612 | 7 | 310 | 0.0 | 3.2 | 0.00 | 0.00 | 0.00 | 73 | 1019.4 |
| 20260503010112 | 7 | 307 | 0.0 | 0.0 | 0.00 | 0.00 | 0.00 | 73 | 1019.5 |
| 20260503004613 | 7 | 327 | 0.0 | 1.6 | 0.00 | 0.00 | 0.00 | 74 | 1019.5 |
| 20260503003120 | 7 | 316 | 1.6 | 3.2 | 0.00 | 0.00 | 0.00 | 73 | 1019.6 |
| 20260503001611 | 7 | 316 | 1.6 | 3.2 | 0.00 | 0.00 | 0.00 | 73 | 1019.6 |
| 20260503000111 | 8 | 315 | 3.2 | 6.4 | 0.00 | 0.00 | 0.00 | 71 | 1019.9 |
| 20260502234613 | 8 | 286 | 1.6 | 4.8 | 0.00 | 0.00 | 0.00 | 70 | 1020.0 |
| 20260502233111 | 9 | 314 | 0.0 | 0.0 | 0.00 | 0.00 | 0.00 | 68 | 1020.1 |
| 20260502231611 | 9 | 314 | 1.6 | 3.2 | 0.00 | 0.00 | 0.00 | 67 | 1020.0 |
| 20260502230111 | 9 | 312 | 1.6 | 4.8 | 0.00 | 0.00 | 0.00 | 67 | 1020.0 |
| 20260502224611 | 9 | 310 | 3.2 | 4.8 | 0.00 | 0.00 | 0.00 | 67 | 1020.1 |
| 20260502223112 | 10 | 309 | 0.0 | 4.8 | 0.00 | 0.00 | 0.00 | 67 | 1020.2 |
| 20260502221611 | 10 | 301 | 3.2 | 6.4 | 0.00 | 0.00 | 0.00 | 66 | 1020.3 |
| 20260502220110 | 10 | 302 | 1.6 | 6.4 | 0.00 | 0.00 | 0.00 | 65 | 1020.4 |
| 20260502214610 | 10 | 321 | 0.0 | 3.2 | 0.00 | 0.00 | 0.00 | 64 | 1020.4 |
| 20260502213110 | 11 | 309 | 1.6 | 3.2 | 0.00 | 0.00 | 0.00 | 64 | 1020.5 |
| 20260502211610 | 11 | 309 | 1.6 | 4.8 | 0.00 | 0.00 | 0.00 | 61 | 1020.5 |
| 20260502210110 | 11 | 310 | 1.6 | 3.2 | 0.00 | 0.00 | 0.00 | 61 | 1020.5 |
| 20260502204610 | 11 | 310 | 1.6 | 4.8 | 0.00 | 0.00 | 0.00 | 61 | 1020.6 |
| 20260502203110 | 11 | 293 | 1.6 | 4.8 | 0.00 | 0.00 | 0.00 | 60 | 1020.6 |
| 20260502201610 | 12 | 292 | 1.6 | 3.2 | 0.00 | 0.00 | 0.00 | 57 | 1020.7 |
| 20260502200110 | 13 | 292 | 0.0 | 4.8 | 0.00 | 0.00 | 0.00 | 55 | 1020.7 |
| 20260502193109 | 13 | 299 | 3.2 | 4.8 | 0.00 | 0.00 | 0.00 | 54 | 1020.8 |
| 20260502191611 | 14 | 156 | 0.0 | 0.0 | 0.00 | 0.00 | 0.00 | 53 | 1020.7 |
| 20260502190109 | 15 | 156 | 0.0 | 0.0 | 0.00 | 0.00 | 0.00 | 52 | 1020.6 |
| 20260502181609 | 17 | 153 | 0.0 | 0.0 | 0.00 | 0.00 | 0.00 | 49 | 1020.4 |
| 20260502180109 | 18 | 153 | 0.0 | 0.0 | 0.00 | 0.00 | 0.00 | 46 | 1020.3 |
| 20260502170109 | 21 | 85 | 3.2 | 6.4 | 0.00 | 0.00 | 0.00 | 38 | 1020.4 |
| 20260502163108 | 23 | 90 | 1.6 | 4.8 | 0.00 | 0.00 | 0.00 | 36 | 1020.7 |
| 20260502161609 | 23 | 144 | 3.2 | 6.4 | 0.00 | 0.00 | 0.00 | 35 | 1020.9 |
| 20260502160108 | 23 | 172 | 6.4 | 9.7 | 0.00 | 0.00 | 0.00 | 34 | 1021.0 |
| 20260502151613 | 23 | 65 | 3.2 | 6.4 | 0.00 | 0.00 | 0.00 | 32 | 1021.4 |
| 20260502150113 | 23 | 145 | 3.2 | 4.8 | 0.00 | 0.00 | 0.00 | 35 | 1021.6 |
| 20260502140113 | 23 | 13 | 4.8 | 11.3 | 0.00 | 0.00 | 0.00 | 31 | 1022.0 |
| 20260502130112 | 23 | 157 | 1.6 | 9.7 | 0.00 | 0.00 | 0.00 | 33 | 1022.7 |
| 20260502123112 | 23 | 177 | 3.2 | 11.3 | 0.00 | 0.00 | 0.00 | 36 | 1023.1 |
| 20260502121612 | 23 | 150 | 6.4 | 12.9 | 0.00 | 0.00 | 0.00 | 37 | 1023.3 |
| 20260502120112 | 23 | 5 | 6.4 | 12.9 | 0.00 | 0.00 | 0.00 | 32 | 1023.4 |
| 20260502113111 | 22 | 54 | 4.8 | 14.5 | 0.00 | 0.00 | 0.00 | 33 | 1023.8 |
| 20260502111611 | 22 | 348 | 4.8 | 6.4 | 0.00 | 0.00 | 0.00 | 36 | 1024.2 |
| 20260502110111 | 22 | 311 | 6.4 | 9.7 | 0.00 | 0.00 | 0.00 | 34 | 1024.3 |
| 20260502103111 | 22 | 16 | 4.8 | 8.0 | 0.00 | 0.00 | 0.00 | 36 | 1024.8 |
| 20260502101611 | 21 | 200 | 4.8 | 8.0 | 0.00 | 0.00 | 0.00 | 37 | 1025.0 |
| 20260502080110 | 19 | 65 | 4.8 | 9.7 | 0.00 | 0.00 | 0.00 | 45 | 1026.2 |
| 20260502070110 | 16 | 349 | 8.0 | 12.9 | 0.00 | 0.00 | 0.00 | 53 | 1026.4 |
| 20260502064610 | 16 | 360 | 4.8 | 12.9 | 0.00 | 0.00 | 0.00 | 54 | 1026.4 |
| 20260502063110 | 15 | 321 | 0.0 | 3.2 | 0.00 | 0.00 | 0.00 | 62 | 1026.6 |
| 20260502060111 | 12 | 60 | 4.8 | 9.7 | 0.00 | 0.00 | 0.00 | 64 | 1026.5 |
| 20260502054609 | 11 | 313 | 1.6 | 3.2 | 0.00 | 0.00 | 0.00 | 70 | 1026.6 |
| 20260502053109 | 9 | 313 | 0.0 | 0.0 | 0.00 | 0.00 | 0.00 | 76 | 1026.6 |
| 20260502051609 | 8 | 313 | 0.0 | 0.0 | 0.00 | 0.00 | 0.00 | 78 | 1026.6 |
| 20260502044609 | 6 | 304 | 0.0 | 3.2 | 0.00 | 0.00 | 0.00 | 84 | 1026.5 |
| 20260502043109 | 5 | 304 | 0.0 | 0.0 | 0.00 | 0.00 | 0.00 | 85 | 1026.4 |
| 20260502040109 | 4 | 287 | 0.0 | 1.6 | 0.00 | 0.00 | 0.00 | 85 | 1026.3 |
| 20260502034614 | 4 | 288 | 0.0 | 3.2 | 0.00 | 0.00 | 0.00 | 85 | 1026.2 |
| 20260502033114 | 4 | 279 | 3.2 | 3.2 | 0.00 | 0.00 | 0.00 | 84 | 1026.2 |
| 20260502031613 | 4 | 275 | 0.0 | 0.0 | 0.00 | 0.00 | 0.00 | 83 | 1026.2 |
| 20260502030113 | 5 | 275 | 0.0 | 0.0 | 0.00 | 0.00 | 0.00 | 84 | 1026.2 |
| 20260502024613 | 5 | 341 | 0.0 | 0.0 | 0.00 | 0.00 | 0.00 | 82 | 1026.3 |
| 20260502023113 | 5 | 341 | 0.0 | 3.2 | 0.00 | 0.00 | 0.00 | 81 | 1026.2 |